Flag for Denmark Weather past 2 weeks in Odense, Denmark

Now
57 °F

Cool.


Feels Like: 56 °F
Forecast: 58 / 65 °F
Wind: 7 mph from Southwest

Location: Vamdrup

Current Time: Jul 7, 2015 at 4:30:09 AM

Latest Report: Jul 7, 2015 at 3:50 AM


Visibility: N/A

Pressure: 29.95 "Hg

Humidity: 88%

Dew point: 54 °F

Location of OdenseLocation

Historic Weather in Odense — Graph

°F

Odense temperature yesterday

Maximum temperature yesterday: 68 °F (at 12:20 AM)
Minimum temperature yesterday: 57 °F (at 10:20 PM)
Average temperature yesterday: 62 °F

Past Weeks' High & Low Weather Summary

 TemperatureHumidityPressure
High82 °F (Jul 3, 4:50 PM)100% (Jun 23, 6:20 AM)30.27 "Hg (Jun 23, 6:20 AM)
Low43 °F (Jun 23, 4:50 AM)40% (Jun 23, 5:20 PM)29.62 "Hg (Jun 22, 7:20 PM)
Average61 °F78%30.05 "Hg
* Reported Jun 22 3:20 AM — Jul 7 3:20 AM, Odense, Weather by CustomWeather, © 2015

Note: Actual official high and low records may vary slightly from our data, if they occured in-between our weather recording intervals... More about our weather records

Advertising

Odense weather history for previous 24 hours

 ConditionsComfort  
Time TempWeatherWind HumidityBarometerVisibility
3:20 AM
Tue, Jul 7
57 °FCool.8 mph88%29.95 "HgN/A
2:50 AM55 °FCool.8 mph94%29.98 "HgN/A
2:20 AM55 °FCool.8 mph94%29.98 "HgN/A
1:50 AM57 °FCool.9 mph88%29.98 "HgN/A
1:20 AM57 °FCool.8 mph94%29.98 "HgN/A
12:50 AM57 °FCool.8 mph88%29.98 "HgN/A
12:20 AM57 °FCool.8 mph88%30.01 "HgN/A
11:50 PM
Mon, Jul 6
57 °FCool.9 mph88%30.01 "HgN/A
11:20 PM57 °FCool.9 mph88%30.01 "HgN/A
10:50 PM57 °FCool.9 mph88%30.01 "HgN/A
10:20 PM57 °FCool.9 mph88%30.01 "HgN/A
9:50 PM59 °FCool.10 mph82%30.01 "HgN/A
9:20 PM59 °FCool.12 mph82%30.01 "HgN/A
8:50 PM61 °FCool.15 mph77%30.01 "HgN/A
8:20 PM61 °FCool.16 mph77%30.01 "HgN/A
7:50 PM61 °FCool.17 mph72%30.01 "HgN/A
7:20 PM63 °FMild.18 mph73%30.01 "HgN/A
6:50 PM63 °FMild.18 mph73%30.01 "HgN/A
6:20 PM63 °FMild.21 mph68%30.04 "HgN/A
5:50 PM64 °FMild.20 mph68%30.04 "HgN/A
5:20 PM63 °FMild.22 mph68%30.04 "HgN/A
4:50 PM64 °FPartly sunny.21 mph64%30.04 "HgN/A
3:50 PM63 °FPartly sunny.22 mph68%30.04 "HgN/A
2:50 PM64 °FPartly sunny.23 mph64%30.01 "HgN/A
1:50 PM64 °FPartly sunny.20 mph68%30.01 "HgN/A
12:50 PM64 °FPartly sunny.18 mph68%30.01 "HgN/A
11:50 AM63 °FPartly sunny.17 mph73%29.98 "HgN/A
10:50 AM61 °FPartly sunny.16 mph72%29.98 "HgN/A
9:50 AM61 °FPartly sunny.23 mph72%29.95 "HgN/A
8:50 AM61 °FPartly sunny.23 mph77%29.92 "HgN/A
7:50 AM61 °FPartly sunny.21 mph77%29.92 "HgN/A
7:20 AM61 °FCool.23 mph77%29.89 "HgN/A
6:50 AM61 °FCool.18 mph83%29.89 "HgN/A
6:20 AM61 °FCool.17 mph83%29.89 "HgN/A
5:20 AM61 °FCool.17 mph83%29.89 "HgN/A
4:50 AM61 °FCool.15 mph83%29.89 "HgN/A
4:20 AM61 °FCool.16 mph88%29.89 "HgN/A
Weather by CustomWeather, © 2015

See weather overviewHow to use our weather pages